This demonstration page uses our WeatherBlox Daily Observations layout. Learn more.

Left ArrowRight Arrow

Hourly Observations for July 7, 2016

Temp ( °F °C ) Dew Point ( °F °C ) Humidity (%) Winds ( mph kmh ) Pressure ( in mb ) Visibility ( mi km ) Precip ( " mm )
12:51 am 00:51 Clear 82 27.8 51 10.6 34 34 NNW 7 11 29.78 1008 10 16 0.00 0.00
1:51 am 01:51 Clear 84 28.9 52 11.1 33 33 NW 12 19 29.77 1008 10 16 0.00 0.00
2:51 am 02:51 Clear 83 28.3 55 12.8 38 38 NNW 13 20 29.78 1008 10 16 0.00 0.00
3:51 am 03:51 Clear 82 27.8 56 13.3 41 41 WNW 13 20 29.79 1009 10 16 0.00 0.00
4:51 am 04:51 Clear 81 27.2 55 12.8 41 41 WNW 10 17 29.82 1010 10 16 0.00 0.00
5:51 am 05:51 Sunny 80 26.7 56 13.3 44 44 WNW 12 19 29.83 1010 10 16 0.00 0.00
6:51 am 06:51 Sunny 83 28.3 57 13.9 41 41 NW 12 19 29.85 1011 10 16 0.00 0.00
7:51 am 07:51 Sunny 85 29.4 59 15 42 42 NW 16 26 29.86 1011 10 16 0.00 0.00
8:51 am 08:51 Sunny 88 31.1 59 15 38 38 NW 12 19 29.86 1011 10 16 0.00 0.00
9:51 am 09:51 Mostly Cloudy 91 32.8 59 15 34 34 W 13 20 29.86 1011 10 16 0.00 0.00
10:51 am 10:51 Partly Cloudy 91 32.8 59 15 34 34 W 12 19 29.86 1011 10 16 0.00 0.00
11:51 am 11:51 Mostly Cloudy 93 33.9 58 14.4 31 31 W 13 20 29.85 1011 10 16 0.00 0.00
12:51 pm 12:51 Sunny 94 34.4 57 13.9 29 29 WNW 8 13 29.83 1010 10 16 0.00 0.00
1:51 pm 13:51 Sunny 92 33.3 58 14.4 32 32 WSW 13 20 29.80 1009 10 16 0.00 0.00
2:51 pm 14:51 Sunny 94 34.4 59 15 31 31 SW 13 20 29.78 1009 10 16 0.00 0.00
3:51 pm 15:51 Sunny 96 35.6 57 13.9 27 27 WSW 14 22 29.76 1008 10 16 0.00 0.00
4:51 pm 16:51 Sunny 97 36.1 56 13.3 25 25 W 10 17 29.73 1007 10 16 0.00 0.00
5:51 pm 17:51 Sunny 96 35.6 56 13.3 26 26 WNW 14 22 29.72 1007 10 16 0.00 0.00
6:51 pm 18:51 Mostly Cloudy 95 35 52 11.1 23 23 WNW 16 26 29.74 1007 10 16 0.00 0.00
7:51 pm 19:51 Clear 92 33.3 53 11.7 27 27 WNW 13 20 29.76 1008 10 16 0.00 0.00
8:51 pm 20:51 Clear 89 31.7 52 11.1 28 28 WNW 12 19 29.78 1009 10 16 0.00 0.00
9:51 pm 21:51 Clear 86 30 51 10.6 30 30 NW 8 13 29.80 1009 10 16 0.00 0.00
10:51 pm 22:51 Mostly Clear 86 30 51 10.6 30 30 NW 9 15 29.80 1009 10 16 0.00 0.00
11:51 pm 23:51 Clear 82 27.8 51 10.6 34 34 NNW 7 11 29.80 1009 10 16 0.00 0.00

Powered by AerisWeather